#timestamp,LO_Frequency,Hit,StdDev 
1611216015.8,286047004.4,N
1611216035.6,286047004.0,N
1611216055.4,286047001.4,N
1611216075.3,286047000.3,N
1611216095.1,286047000.3,N
1611216115.8,286047002.1,N
1611216135.7,286047002.6,N
1611216155.5,286047004.3,N
1611216175.4,286047000.1,N
1611216195.2,286046999.7,N
1611216215.0,286046999.8,N
1611216215.9,286046999.8,N
1611216235.8,286047001.7,N
1611216255.6,286047003.8,N
1611216275.5,286047003.1,N
1611216295.3,286047005.2,N
1611216315.1,286047004.6,N
1611216335.9,286047004.8,N
1611216355.7,286047004.5,N
1611216375.5,286047004.8,N
1611216395.4,286047006.4,Y
1611216415.2,286047003.6,P
1611216435.1,286047003.3,P
1611216436.0,286047003.3,P
1611216455.8,286047004.9,Y
1611216475.6,286047004.2,P
1611216495.5,286046999.7,N
1611216515.3,286047001.0,N
1611216535.2,286046999.0,N
1611216555.9,286046999.3,N
1611216575.7,286046997.7,N
1611216595.6,286046997.6,N
1611216615.4,286046996.3,N
1611216635.2,286046994.6,N
1611216655.1,286046994.8,N
1611216656.0,286046994.8,N
1611216675.8,286046992.1,N
1611216695.7,286046992.1,N
1611216715.5,286046993.4,N
1611216735.3,286046997.4,N
1611216755.2,286046997.8,N
1611216775.0,286046997.2,N
1611216775.9,286046997.2,N
1611216795.8,286046997.7,N
1611216815.6,286046996.7,N
1611216835.4,286046999.3,N
1611216855.3,286046998.9,N
1611216875.1,286046997.0,N
1611216895.8,286046997.3,N
1611216915.7,286046997.8,N
1611216935.5,286046997.8,N
1611216955.4,286046994.9,N
1611216975.2,286046995.7,N
1611216995.0,286046995.3,N
1611216995.9,286046995.3,N
1611217015.8,286046995.4,N
1611217035.6,286046995.4,N
1611217055.4,286046996.7,N
1611217075.3,286046997.5,N
1611217095.1,286046997.8,N
1611217115.9,286046999.2,N
1611217135.7,286046999.6,N
1611217155.5,286046997.4,N
1611217175.4,286046996.6,N
1611217195.2,286046998.2,N
1611217215.0,286046998.1,N
1611217216.0,286046998.1,N
1611217235.8,286046996.9,N
1611217255.6,286046999.1,N
1611217275.5,286046996.8,N
1611217295.3,286046998.0,N
1611217315.1,286046995.7,Y
1611217335.9,286046999.6,P
1611217355.7,286046996.6,N
1611217375.6,286046998.0,N
1611217395.4,286046996.6,Y
1611217415.2,286047001.4,P
1611217435.1,286047003.8,N
1611217436.0,286047003.8,N
1611217455.8,286047003.4,N
1611217475.7,286047005.0,N
1611217495.5,286047004.5,N
1611217515.3,286047012.4,Y
1611217535.2,286047006.3,P
1611217555.0,286047007.2,P
1611217555.9,286047007.2,P
1611217575.7,286047005.0,N
1611217595.6,286047005.9,Y
1611217615.4,286046997.7,P
1611217635.3,286046997.5,N
1611217655.1,286046996.0,N
1611217675.8,286046996.1,N
1611217695.7,286046995.8,N
1611217715.5,286046993.7,N
1611217735.4,286046995.1,N
1611217755.2,286046995.8,N
1611217775.0,286046993.6,N
1611217775.9,286046993.6,N
1611217795.8,286046994.2,N
1611217815.6,286046992.1,N
1611217835.4,286046992.4,N
1611217855.3,286046993.1,N
1611217875.1,286046992.1,N
1611217895.9,286046992.8,N
1611217915.7,286046992.4,N
1611217935.5,286046991.9,N
1611217955.4,286046990.1,Y
1611217975.2,286046996.0,P
1611217995.1,286046993.4,P
1611217996.0,286046993.4,P
1611218015.8,286046995.8,Y
1611218035.6,286047001.9,P
1611218055.5,286047002.7,N
1611218075.3,286047001.1,N
1611218095.2,286047000.3,N
1611218115.9,286047000.8,N
1611218135.7,286047000.8,N
1611218155.6,286047002.4,N
1611218175.4,286047000.9,N
1611218195.2,286047000.8,N
1611218215.1,286047000.3,N
1611218216.0,286047000.3,N
1611218235.8,286047000.6,N
1611218255.7,286046998.1,N
1611218275.5,286047001.2,N
1611218295.3,286047000.8,N
1611218315.2,286047000.6,N
1611218335.0,286046998.5,N
1611218335.9,286046998.5,N
1611218355.8,286046998.4,N
1611218375.6,286046998.8,N
1611218395.4,286047000.7,N
1611218415.3,286047000.0,N
1611218435.1,286047001.8,N
1611218455.8,286047004.1,N
1611218475.7,286047004.3,N
1611218495.5,286047002.3,N
1611218515.4,286047000.7,N
1611218535.2,286047000.3,N
1611218555.0,286047000.3,N
1611218555.9,286047000.3,N
1611218575.8,286046999.8,N
1611218595.6,286047001.6,N
1611218615.4,286047002.1,N
1611218635.3,286047001.4,N
1611218655.1,286047004.1,N
1611218675.9,286047001.8,N
1611218695.7,286046999.7,N
1611218715.5,286047000.4,N
1611218735.4,286047000.8,N
1611218755.2,286047001.2,N
1611218775.1,286046998.3,N
1611218776.0,286046998.3,N
1611218795.8,286047000.0,N
1611218815.6,286047002.3,N
1611218835.5,286047002.4,N
1611218855.3,286047002.7,N
1611218875.2,286047002.6,N
1611218895.9,286047002.0,N
1611218915.7,286047001.5,N
1611218935.6,286046999.9,N
1611218955.4,286047002.4,N
1611218975.2,286047001.1,N
1611218995.1,286046998.5,N
1611218996.0,286046998.5,N
1611219015.8,286047001.0,N
1611219035.7,286046999.8,N
1611219055.5,286046999.8,N
1611219075.3,286047000.2,N
1611219095.2,286047000.3,N
1611219115.0,286047000.0,N
1611219115.9,286047000.0,N
1611219135.8,286047002.2,N
1611219155.6,286047000.1,N
1611219175.4,286047000.4,N
1611219195.3,286047001.2,N
1611219215.1,286046998.2,N
1611219235.9,286047001.2,N
1611219255.7,286046996.5,N
1611219275.5,286046997.5,N
1611219295.4,286046997.4,N
1611219315.2,286046996.5,N
1611219335.0,286046997.0,N
1611219335.9,286046997.0,N
1611219355.8,286046998.4,N
1611219375.6,286046999.0,N
1611219395.5,286046999.4,N
1611219415.3,286046999.2,N
1611219435.1,286046998.8,N
1611219455.9,286046997.2,N
1611219475.7,286046995.3,N
1611219495.6,286046995.4,N
1611219515.4,286046993.4,Y
1611219535.2,286046995.4,P
1611219555.1,286046997.5,N
1611219556.0,286046997.5,N
1611219575.8,286046995.2,Y
1611219595.6,286046998.6,P
